Wind_Speed
11 12 13 14 15 15 15 16 16 17 17 17 17 17 17 18 17 17 18 17 17 17 17 18 18 19 19 19 19 19 19 19 19 19 19 19 19 19 19 19 19 19 19
11 12 13 14 14 15 15 16 16 16 17 17 17 17 17 17 18 18 18 18 18 18 18 19 19 19 20 20 20 20 21 21 21 20 20 20 20 20 20 21 21 21 21
10 11 12 13 14 15 15 16 16 16 16 17 17 17 17 17 17 18 18 18 18 19 19 19 19 19 20 20 21 21 21 21 21 21 21 21 21 21 21 21 21 21 21
10 11 12 13 13 14 15 15 16 16 16 17 17 17 17 17 17 17 18 18 18 18 18 18 19 19 19 20 20 20 20 20 21 21 21 21 21 21 21 21 21 21 21
9 11 11 12 13 14 14 15 15 16 16 17 17 17 17 17 17 17 17 17 17 18 18 18 18 18 18 19 19 19 19 19 19 19 19 20 20 20 20 20 21 21 21
10 11 12 13 14 14 15 15 16 16 17 17 18 18 18 17 17 17 17 17 17 17 17 17 18 18 17 18 18 18 18 18 18 18 18 18 19 19 19 19 20 20 21
11 12 14 14 15 15 16 16 17 17 18 18 18 18 18 18 18 18 18 18 18 17 17 17 17 17 17 17 17 17 17 17 18 18 18 18 18 18 18 19 19 20 20
13 14 15 15 16 16 17 17 18 18 18 19 19 19 19 19 19 19 19 18 18 18 17 17 17 17 17 17 17 18 18 18 18 18 18 18 18 19 19 19 20 20 21
15 15 16 16 17 17 18 19 19 20 20 20 20 20 21 21 21 20 20 19 19 19 18 18 18 18 19 18 18 18 18 19 19 19 19 19 19 19 20 20 21 21 21
16 16 17 18 18 19 19 20 20 21 21 21 22 22 22 22 22 21 21 21 20 20 20 20 20 20 20 20 20 20 20 20 20 20 20 20 21 21 21 22 22 23 23
18 18 18 19 20 20 20 21 21 21 22 22 22 22 23 23 23 23 23 23 23 23 22 22 22 22 22 22 22 22 22 22 22 22 22 23 23 23 24 24 25 25 25
19 20 20 20 21 21 22 22 22 22 23 23 23 23 24 24 24 24 25 25 25 25 25 25 25 25 25 25 25 26 26 26 26 25 26 26 26 27 27 27 28 28 29
20 20 20 20 21 22 22 23 23 24 24 24 24 25 25 25 26 26 27 27 27 28 28 28 28 28 28 28 29 29 29 29 29 29 30 30 30 30 31 31 32 32 33
20 21 21 21 21 22 23 23 24 24 25 25 26 26 27 27 27 28 28 29 29 30 30 30 31 31 31 32 32 33 33 33 33 34 34 34 35 35 35 36 36 36 37
20 20 21 21 21 22 23 23 24 24 25 26 26 27 27 28 28 28 29 30 30 31 32 32 33 33 34 35 35 36 37 37 37 38 38 39 39 40 40 40 41 41 41
20 21 21 22 22 22 23 24 24 24 25 26 27 27 28 28 28 29 29 30 31 31 32 33 34 34 35 36 37 38 39 40 40 41 41 42 43 44 44 45 45 46 46
20 21 21 22 22 22 22 23 24 24 25 26 26 27 27 28 28 29 29 30 31 32 32 33 34 35 37 38 39 40 41 42 42 43 44 45 45 46 47 48 49 50 50
20 20 21 21 21 22 22 23 24 24 25 26 26 27 28 28 29 29 30 31 32 32 33 34 35 36 37 38 40 41 42 43 44 45 46 46 47 48 49 50 52 52 53
20 20 21 21 21 22 23 23 24 25 25 26 27 28 28 29 29 30 30 31 32 32 33 34 35 36 37 39 40 41 42 43 44 45 46 47 48 49 50 51 52 54 55
20 21 21 22 22 23 23 24 25 25 26 27 27 28 29 29 30 30 31 31 32 33 33 35 36 37 37 39 40 40 41 42 44 45 46 47 48 50 51 52 53 54 56
21 21 22 22 23 23 24 25 26 26 26 27 28 28 28 29 30 30 31 32 33 33 34 35 37 38 39 40 41 42 42 43 44 45 47 48 49 50 52 53 54 55 57
21 22 23 23 24 25 25 26 26 27 27 28 28 28 29 30 31 32 32 33 34 35 36 38 39 40 40 42 43 44 43 43 46 47 48 49 50 52 54 55 57 58 59
22 23 24 24 25 26 26 26 27 27 28 28 29 30 30 31 32 33 34 35 36 37 38 39 40 42 42 44 46 48 48 48 47 48 50 52 54 55 57 58 60 62 64
24 24 25 26 26 26 27 27 28 28 28 29 30 31 32 33 34 35 36 37 38 39 40 41 43 44 45 46 48 50 52 53 54 53 53 55 58 60 61 63 65 66 68
25 25 26 27 27 27 28 28 29 30 31 31 32 33 34 35 36 38 39 40 41 42 43 45 46 47 49 51 52 54 56 58 60 62 61 60 62 64 66 68 70 71 72
26 27 28 28 28 29 30 30 31 32 33 34 35 36 37 38 39 40 41 42 44 45 46 48 50 51 53 55 57 58 60 62 64 67 69 69 69 69 71 73 74 76 78
Wind_Direction
271 271 268 267 267 267 267 267 267 268 269 270 271 271 272 272 272 273 273 273 273 272 272 272 271 271 271 271 271 271 271 270 270 269 269 270 270 270 271 272 272 272 272
275 275 273 271 269 268 268 268 268 269 269 269 270 271 271 272 272 272 272 272 272 272 273 273 273 272 272 271 271 271 272 272 272 272 271 271 271 271 271 272 272 273 273
278 277 276 275 272 271 270 270 270 270 270 270 270 271 272 272 273 274 274 273 273 273 273 273 273 272 272 272 272 272 272 272 273 273 273 272 272 272 272 273 273 273 273
283 280 279 277 275 274 272 271 271 271 271 272 272 273 273 273 274 275 275 275 275 274 274 274 273 273 273 273 273 273 273 273 273 273 273 273 273 274 274 274 274 274 275
288 284 281 279 278 277 276 275 274 274 274 275 275 275 275 275 276 276 276 276 276 275 274 274 274 273 273 273 273 273 273 274 274 274 274 274 274 275 275 275 275 276 276
291 287 284 281 280 279 278 278 278 278 278 278 278 277 277 276 276 277 277 278 278 276 275 275 274 274 274 274 274 274 274 274 275 275 275 275 275 276 276 276 276 277 277
290 288 285 283 281 280 279 279 279 279 279 280 280 279 278 277 277 278 278 278 278 276 275 275 274 273 273 274 274 274 275 275 275 275 275 275 276 277 277 278 278 278 279
290 288 286 284 282 281 280 280 280 280 280 280 281 281 280 279 279 278 278 277 277 276 274 274 273 273 273 273 274 274 274 274 274 274 274 274 275 276 277 278 279 280 281
286 286 285 285 284 282 281 281 281 281 280 280 280 281 280 280 279 278 277 276 276 275 273 273 272 273 273 272 272 272 273 273 273 273 272 273 273 275 276 277 279 280 280
285 286 285 284 283 283 282 282 282 281 281 281 280 280 280 279 278 277 276 275 274 273 272 272 272 271 271 270 270 270 270 271 271 271 272 272 273 274 275 276 277 278 278
286 286 284 284 283 282 281 281 281 281 281 280 280 280 280 279 278 276 275 274 273 272 271 271 271 270 270 270 269 269 269 270 270 271 271 272 272 273 274 274 275 275 276
287 286 283 283 282 281 281 281 281 281 281 280 280 280 279 279 277 276 275 274 273 272 271 270 270 270 269 269 269 269 269 270 270 270 270 271 271 272 273 273 274 274 274
286 286 284 283 282 282 281 281 281 281 281 281 281 281 280 279 278 277 275 274 273 272 271 270 270 269 269 269 269 268 268 269 269 269 270 270 270 271 271 272 272 272 273
285 286 285 284 282 282 282 281 281 281 281 281 281 280 280 280 279 278 276 275 274 273 271 271 270 270 269 269 268 268 268 268 268 268 268 269 269 269 270 270 271 271 271
287 287 287 286 284 283 282 282 282 282 282 282 281 281 280 280 279 278 277 276 275 274 273 272 271 271 270 270 269 268 268 267 267 268 268 268 268 269 269 269 269 269 270
287 287 288 287 285 284 283 283 283 283 283 283 282 282 282 281 281 280 279 278 276 275 275 274 273 272 271 270 270 269 269 269 269 269 269 269 269 269 269 269 269 269 269
287 287 288 287 286 286 285 285 285 285 284 284 283 283 283 283 282 282 281 280 279 278 277 275 274 273 272 272 271 271 271 271 271 271 271 271 271 271 271 271 270 270 270
286 287 287 288 287 287 287 286 286 286 286 285 285 285 285 285 284 284 283 282 281 280 280 279 278 277 276 275 274 274 274 274 274 274 274 273 273 272 272 273 273 272 272
286 287 288 287 287 287 287 287 287 287 287 286 286 286 286 286 286 285 285 284 283 282 282 281 280 280 279 278 278 277 277 277 277 276 276 276 275 274 274 273 273 273 273
286 287 287 287 288 288 288 288 288 288 287 287 287 287 287 286 286 286 285 285 284 284 283 283 282 282 282 281 280 280 279 279 278 278 277 276 276 276 275 275 274 274 274
287 287 288 288 289 289 289 289 288 288 288 288 288 287 287 288 288 288 288 287 287 286 286 285 285 284 284 284 283 282 281 281 280 279 279 278 278 277 276 276 275 275 274
288 289 289 289 290 290 290 290 289 289 289 289 288 288 289 289 289 289 289 289 288 288 288 287 286 286 286 286 285 283 282 280 280 280 280 279 278 277 277 277 276 276 275
288 289 289 290 291 291 291 290 289 290 289 289 289 290 290 290 290 291 291 290 290 290 289 289 288 288 288 288 287 287 286 283 280 280 280 280 278 277 277 276 276 276 275
289 289 290 291 292 292 291 291 291 291 291 290 290 291 291 291 292 292 292 291 291 290 290 290 290 290 290 289 289 289 288 288 286 283 281 281 281 280 279 278 277 276 275
289 290 292 292 292 292 292 292 291 291 291 291 291 291 292 292 292 292 292 292 292 292 292 292 291 291 291 291 290 290 290 289 289 288 285 284 283 282 282 281 279 278 276
290 291 291 292 292 292 292 292 291 291 292 292 292 292 293 293 293 293 293 293 293 293 293 293 293 293 293 292 292 292 291 291 290 289 288 287 285 284 283 282 281 280 278
Height
5871 5871 5872 5872 5873 5873 5874 5874 5875 5875 5876 5876 5876 5876 5876 5876 5877 5877 5877 5877 5878 5878 5878 5879 5879 5879 5879 5880 5880 5880 5880 5880 5881 5881 5881 5882 5882 5882 5883 5883 5883 5884 5884
5869 5869 5870 5870 5870 5871 5872 5872 5872 5873 5873 5873 5873 5874 5874 5874 5874 5874 5875 5875 5875 5875 5876 5876 5876 5876 5876 5877 5877 5877 5877 5878 5878 5878 5879 5879 5879 5880 5880 5880 5881 5881 5881
5867 5867 5868 5868 5868 5869 5869 5870 5870 5870 5870 5871 5871 5871 5871 5871 5871 5872 5872 5872 5872 5872 5872 5873 5873 5873 5873 5874 5874 5874 5874 5874 5875 5875 5876 5876 5876 5876 5877 5877 5877 5878 5878
5865 5865 5866 5866 5866 5867 5867 5867 5867 5868 5868 5868 5868 5868 5869 5869 5869 5869 5869 5869 5869 5869 5869 5870 5870 5870 5870 5870 5871 5871 5871 5871 5872 5872 5872 5873 5873 5873 5873 5874 5874 5874 5875
5864 5864 5864 5864 5864 5865 5865 5865 5865 5865 5865 5865 5865 5866 5866 5866 5866 5866 5866 5866 5866 5866 5866 5867 5867 5867 5867 5867 5868 5868 5868 5868 5868 5869 5869 5869 5869 5870 5870 5870 5870 5871 5871
5862 5862 5862 5862 5862 5862 5862 5862 5862 5862 5862 5863 5863 5863 5863 5863 5863 5863 5863 5863 5863 5863 5863 5864 5864 5864 5864 5864 5864 5865 5865 5865 5865 5865 5866 5866 5866 5866 5866 5866 5867 5867 5867
5860 5860 5860 5860 5860 5860 5860 5860 5860 5860 5860 5860 5860 5860 5860 5860 5860 5860 5860 5860 5860 5860 5860 5861 5861 5861 5861 5861 5861 5861 5862 5862 5862 5862 5862 5862 5862 5862 5862 5863 5863 5863 5863
5858 5858 5857 5857 5857 5857 5857 5857 5857 5857 5857 5857 5857 5857 5857 5857 5857 5857 5857 5857 5857 5857 5857 5857 5858 5858 5858 5858 5858 5858 5858 5859 5859 5859 5859 5859 5859 5859 5859 5859 5859 5859 5859
5856 5856 5855 5854 5854 5854 5854 5854 5854 5854 5853 5853 5853 5853 5853 5853 5853 5853 5853 5853 5854 5854 5854 5854 5854 5854 5854 5854 5855 5855 5855 5855 5855 5855 5855 5855 5855 5855 5855 5855 5855 5855 5855
5853 5853 5852 5851 5851 5851 5850 5850 5850 5850 5850 5850 5850 5850 5850 5850 5849 5849 5849 5850 5850 5850 5850 5850 5850 5850 5850 5850 5851 5851 5851 5851 5851 5851 5851 5851 5851 5851 5851 5851 5851 5850 5850
5850 5850 5849 5848 5848 5847 5847 5846 5846 5846 5846 5846 5845 5845 5845 5845 5845 5845 5845 5845 5845 5846 5846 5846 5846 5846 5846 5846 5846 5846 5846 5846 5846 5846 5846 5846 5846 5846 5846 5846 5845 5845 5845
5846 5846 5846 5845 5844 5844 5843 5843 5842 5842 5842 5841 5841 5841 5841 5841 5841 5840 5840 5840 5840 5841 5841 5841 5841 5841 5841 5841 5841 5841 5841 5841 5841 5841 5841 5840 5840 5840 5840 5840 5840 5839 5839
5842 5842 5841 5841 5840 5839 5839 5839 5838 5837 5837 5837 5836 5836 5836 5836 5835 5835 5835 5835 5835 5835 5835 5835 5835 5835 5835 5835 5835 5835 5835 5835 5835 5834 5834 5834 5834 5834 5833 5833 5833 5832 5832
5839 5838 5837 5837 5836 5835 5834 5834 5833 5833 5832 5832 5831 5831 5830 5830 5830 5829 5829 5829 5828 5828 5828 5828 5828 5828 5828 5828 5828 5828 5828 5827 5827 5827 5827 5826 5826 5826 5826 5825 5825 5824 5824
5835 5834 5833 5832 5832 5831 5830 5829 5828 5828 5827 5826 5825 5825 5824 5824 5823 5823 5823 5822 5822 5821 5821 5821 5821 5820 5820 5820 5820 5820 5819 5819 5819 5819 5819 5818 5818 5817 5817 5816 5816 5815 5815
5831 5830 5829 5828 5827 5826 5825 5824 5823 5823 5822 5821 5820 5819 5818 5818 5817 5817 5816 5815 5815 5814 5814 5813 5813 5812 5812 5811 5811 5811 5811 5810 5810 5810 5810 5809 5808 5807 5807 5806 5805 5805 5804
5826 5825 5824 5823 5822 5821 5820 5819 5818 5817 5816 5815 5814 5813 5812 5811 5811 5810 5809 5808 5807 5807 5806 5805 5804 5804 5803 5803 5802 5802 5801 5801 5801 5800 5800 5799 5799 5798 5796 5795 5795 5794 5794
5822 5821 5820 5819 5818 5817 5816 5814 5813 5812 5811 5810 5808 5807 5806 5805 5804 5803 5802 5801 5800 5799 5798 5797 5796 5796 5795 5794 5793 5793 5792 5791 5791 5790 5789 5789 5788 5787 5786 5785 5784 5783 5782
5818 5817 5815 5814 5813 5812 5811 5809 5808 5807 5805 5804 5803 5801 5800 5799 5798 5797 5795 5794 5792 5791 5790 5789 5788 5787 5786 5785 5784 5783 5783 5782 5781 5780 5779 5777 5776 5776 5775 5773 5772 5770 5769
5813 5812 5811 5810 5808 5807 5806 5804 5803 5801 5800 5798 5797 5795 5793 5792 5791 5789 5788 5786 5785 5784 5782 5781 5779 5778 5777 5775 5774 5774 5773 5771 5770 5769 5767 5766 5765 5763 5762 5761 5759 5758 5756
5808 5807 5806 5805 5803 5802 5800 5799 5797 5795 5793 5792 5790 5788 5787 5785 5784 5782 5780 5779 5777 5776 5774 5772 5770 5769 5767 5765 5764 5763 5763 5761 5759 5757 5756 5754 5753 5750 5749 5747 5745 5744 5742
5803 5802 5801 5799 5798 5796 5794 5793 5791 5789 5787 5786 5784 5782 5780 5778 5776 5775 5773 5771 5769 5767 5765 5763 5760 5759 5757 5754 5752 5750 5751 5752 5748 5746 5744 5742 5740 5738 5735 5733 5731 5729 5727
5798 5796 5795 5794 5792 5790 5788 5786 5785 5783 5781 5779 5777 5775 5773 5771 5769 5767 5765 5763 5760 5758 5756 5753 5751 5748 5746 5744 5740 5737 5735 5736 5735 5735 5731 5728 5725 5723 5721 5719 5716 5713 5710
5792 5791 5789 5788 5786 5784 5782 5780 5778 5776 5774 5772 5770 5768 5766 5763 5761 5759 5756 5754 5751 5748 5746 5743 5740 5737 5735 5732 5729 5725 5721 5718 5716 5717 5718 5714 5710 5707 5704 5701 5698 5695 5692
5786 5785 5783 5781 5779 5777 5775 5774 5771 5769 5767 5765 5763 5760 5758 5755 5753 5750 5747 5744 5741 5738 5735 5732 5729 5726 5722 5719 5715 5712 5708 5704 5699 5696 5696 5697 5694 5690 5685 5681 5678 5675 5671
5780 5779 5777 5775 5773 5771 5769 5767 5764 5762 5760 5757 5755 5752 5749 5746 5743 5740 5737 5734 5731 5727 5724 5721 5717 5713 5709 5705 5701 5696 5692 5688 5683 5678 5674 5673 5671 5669 5665 5661 5656 5651 5647